[[{"header":{"parameterUnit":"m.s-1","parameterCategory":1,"la1":30.2991,"la2":30.254,"lo1":-89.0895,"lo2":-89.0444,"dy":0.0017,"dx":0.0017,"nx":28,"ny":28,"refTime":"2024-12-08T09:00:00:Z","depth":0,"parameterNumber":2,"parameterNumberName":"U-component_of_WINDS"},"data":[0,0,0,0,0,0,0,0,0,0,0,0,0,0,0,0,0,0,0,0,0,0,0,0,0,0,0,0,0,0,0,0,0,0,0,0,0,0,0,0,0,0,0,0,0,0,0,0,0,0,0,0,0,0,0,0,0,0,-0.4236,-0.4235,0,-0.417,-0.4169,-0.4168,-0.4178,-0.4179,-0.418,-0.4181,-0.4107,-0.4104,-0.4101,0,0,0,0,0,0,0,0,0,0,0,0,0,-0.4363,-0.4361,-0.4236,-0.4235,-0.4234,-0.417,-0.4169,-0.4168,-0.4178,-0.4179,-0.418,-0.4182,-0.4108,-0.4104,-0.4101,0,0,0,0,0,0,0,0,0,0,0,0,0,-0.4303,-0.436,-0.4236,-0.4231,-0.423,-0.417,-0.4169,-0.4168,-0.4177,-0.4179,-0.4181,-0.4182,-0.4109,-0.4105,-0.41,-0.4038,0,0,-0.4086,-0.4084,0,0,0,0,0,0,0,0,-0.4307,-0.4299,-0.4233,-0.4232,-0.423,-0.4184,-0.4187,-0.4124,-0.4177,-0.4197,-0.4181,-0.4183,-0.4131,-0.4124,-0.4108,-0.4035,-0.4032,-0.4086,-0.4083,-0.4081,-0.408,0,0,0,0,0,0,0,-0.4311,-0.4302,-0.421,-0.4232,-0.423,-0.423,-0.4224,-0.4175,-0.4155,-0.4196,-0.4196,-0.4189,-0.413,-0.4112,-0.4106,-0.403,-0.4086,-0.4082,-0.4079,-0.4077,-0.3901,-0.3899,0,0,0,0,0,0,-0.4317,-0.4305,-0.4212,-0.4208,-0.4274,-0.4227,-0.4219,-0.4197,-0.4156,-0.4151,-0.4187,-0.4189,-0.4119,-0.4112,-0.4104,-0.4027,-0.4081,-0.4077,-0.4074,-0.3903,-0.39,-0.3898,0,0,0,0,0,0,-0.432,-0.4309,-0.4214,-0.4256,-0.4244,-0.4223,-0.4198,-0.4195,-0.4177,-0.4149,-0.4145,-0.4173,-0.412,-0.411,-0.4054,-0.4025,-0.4075,-0.4071,-0.3905,-0.3902,-0.3899,-0.3874,0,0,0,0,0,0,-0.4324,-0.431,-0.4288,-0.4256,-0.4242,-0.4168,-0.4196,-0.4192,-0.417,-0.4172,-0.4135,-0.413,-0.4121,-0.4061,-0.405,-0.4019,-0.4067,-0.3907,-0.3904,-0.39,-0.3878,-0.3871,-0.3865,0,0,0,0,0,-0.4328,-0.4282,-0.4287,-0.4275,-0.4215,-0.4166,-0.4158,-0.415,-0.4168,-0.4144,-0.4126,-0.4132,-0.403,-0.4055,-0.4043,-0.401,-0.3909,-0.3905,-0.39,-0.388,-0.3872,-0.3865,0,0,0,0,0,0,-0.4309,-0.4278,-0.4283,-0.4226,-0.4199,-0.4168,-0.4138,-0.4142,-0.4108,-0.4111,-0.41,-0.4092,-0.4035,-0.4017,-0.4046,-0.3947,-0.3972,-0.3965,-0.3961,-0.3953,-0.3947,-0.3951,-0.4063,0,0,0,0,0,-0.4299,-0.4265,-0.4238,-0.419,-0.4177,-0.416,-0.4139,-0.4135,-0.4106,-0.4094,-0.4072,-0.4041,-0.4002,-0.3977,-0.394,-0.3876,-0.3866,-0.3847,-0.3841,-0.3836,-0.3829,-0.3792,-0.3782,-0.3884,-0.3884,-0.3884,0,0,-0.4276,-0.4255,-0.4234,-0.4186,-0.4165,-0.4127,-0.415,-0.411,-0.4081,-0.4087,-0.4033,-0.4016,-0.3981,-0.392,-0.3892,-0.3904,-0.3799,-0.383,-0.3826,-0.3822,-0.3786,-0.3776,-0.3768,-0.3881,-0.3881,-0.3882,0,0,-0.4215,-0.4197,-0.4154,-0.4133,-0.4101,-0.409,-0.408,-0.4048,-0.4038,-0.3984,-0.3987,-0.3952,-0.3886,-0.386,-0.3839,-0.3768,-0.377,-0.3756,-0.3722,-0.3686,-0.3678,-0.3671,-0.3643,-0.3634,-0.375,-0.3749,-0.3749,0,-0.419,-0.4136,-0.4131,-0.409,-0.4068,-0.4074,-0.4029,-0.4008,-0.3965,-0.3948,-0.3962,-0.3879,-0.3856,-0.3788,-0.3771,-0.3754,-0.374,-0.3759,-0.368,-0.3672,-0.3666,-0.3639,-0.3629,-0.3748,-0.3748,-0.3748,-0.3748,0,-0.4106,-0.4068,-0.4037,-0.3997,-0.3972,-0.3929,-0.3915,-0.389,-0.3888,-0.3874,-0.3818,-0.3791,-0.3748,-0.3732,-0.3729,-0.3663,-0.3671,-0.3683,-0.3707,-0.3654,-0.3629,-0.3619,-0.3745,-0.3746,-0.3746,-0.3747,0,0,-0.4031,-0.3989,-0.3977,-0.3959,-0.3924,-0.3893,-0.385,-0.3809,-0.3786,-0.3756,-0.3718,-0.3662,-0.3672,-0.3647,-0.3642,-0.361,-0.3553,-0.3625,-0.3624,-0.3611,-0.3476,-0.3466,-0.3455,-0.3556,-0.3554,-0.3552,-0.3478,0,-0.3965,-0.3891,-0.3885,-0.3816,-0.378,-0.3785,-0.3746,-0.3719,-0.3705,-0.3671,-0.3654,-0.3614,-0.3632,-0.3617,-0.3586,-0.3567,-0.3525,-0.3572,-0.3517,-0.3515,-0.3524,-0.3442,-0.3432,-0.3363,-0.3469,-0.3467,-0.3466,0,-0.3878,-0.3847,-0.3776,-0.3745,-0.373,-0.3696,-0.3657,-0.3625,-0.3594,-0.3586,-0.3558,-0.3557,-0.3509,-0.3537,-0.3469,-0.3501,-0.3478,-0.3465,-0.3462,-0.3455,-0.3486,-0.343,-0.3342,-0.333,-0.3451,-0.3452,-0.3453,0,-0.3828,-0.3768,-0.3718,-0.3702,-0.3665,-0.3641,-0.3624,-0.3595,-0.357,-0.3536,-0.352,-0.348,-0.3457,-0.3425,-0.3412,-0.3434,-0.3345,-0.3372,-0.3334,-0.3334,-0.3314,-0.3315,-0.3218,-0.3302,-0.3303,-0.3303,-0.3303,0,-0.3754,-0.371,-0.3694,-0.3663,-0.3612,-0.3605,-0.3554,-0.3538,-0.3512,-0.3476,-0.3477,-0.3442,-0.3428,-0.339,-0.338,-0.3324,-0.3315,-0.3305,-0.3302,-0.3303,-0.3304,-0.3287,-0.329,-0.33,-0.3301,-0.3301,-0.3302,0,-0.3689,-0.3677,-0.3622,-0.3592,-0.3583,-0.3547,-0.352,-0.3489,-0.3476,-0.3429,-0.3418,-0.3396,-0.3352,-0.3336,-0.3282,-0.3275,-0.321,-0.3212,-0.3221,-0.3219,-0.3182,-0.3185,-0.3069,-0.3052,-0.315,-0.3149,-0.3148,0,-0.3642,-0.3608,-0.3575,-0.3552,-0.3534,-0.3497,-0.3472,-0.3463,-0.3437,-0.3398,-0.337,-0.3327,-0.3291,-0.322,-0.3198,-0.3155,-0.3155,-0.3117,-0.3149,-0.3151,-0.3152,-0.3153,-0.3148,-0.3111,-0.311,-0.3109,-0.3108,0,-0.3559,-0.3554,-0.352,-0.3483,-0.3454,-0.3425,-0.3395,-0.3376,-0.3362,-0.3332,-0.3288,-0.326,-0.3205,-0.3161,-0.3118,-0.3098,-0.3099,-0.3099,-0.3088,-0.3088,-0.3093,-0.3087,-0.3202,-0.3101,-0.3102,-0.3102,-0.3103,-0.3103,-0.3499,-0.3469,-0.344,-0.3402,-0.3379,-0.3352,-0.332,-0.3304,-0.3267,-0.3223,-0.3219,-0.3171,-0.3138,-0.3081,-0.3059,-0.3019,-0.3029,-0.3013,-0.3009,-0.3005,-0.3001,-0.3102,-0.3011,-0.3012,-0.3012,-0.3012,-0.3012,0,-0.3414,-0.3396,-0.3361,-0.3321,-0.329,-0.3297,-0.3265,-0.3238,-0.3195,-0.3166,-0.3132,-0.3079,-0.3036,-0.3011,-0.2967,-0.294,-0.2939,-0.2928,-0.2929,-0.2924,-0.2995,-0.3009,-0.2929,-0.293,-0.293,-0.293,-0.293,-0.293,-0.3366,-0.3314,-0.3306,-0.3242,-0.3224,-0.3178,-0.3159,-0.3133,-0.3109,-0.3052,-0.3016,-0.3001,-0.2973,-0.2927,-0.2886,-0.288,-0.2862,-0.285,-0.2844,-0.2911,-0.2919,-0.2927,-0.2939,-0.2847,-0.2847,-0.2776,-0.2775,-0.2775]},{"header":{"parameterUnit":"m.s-1","parameterCategory":1,"la1":30.2991,"la2":30.254,"lo1":-89.0895,"lo2":-89.0444,"dy":0.0017,"dx":0.0017,"nx":28,"ny":28,"refTime":"2024-12-08T09:00:00:Z","depth":0,"parameterNumber":3,"parameterNumberName":"V-component_of_WINDS"},"data":[0,0,0,0,0,0,0,0,0,0,0,0,0,0,0,0,0,0,0,0,0,0,0,0,0,0,0,0,0,0,0,0,0,0,0,0,0,0,0,0,0,0,0,0,0,0,0,0,0,0,0,0,0,0,0,0,0,0,2.6485,2.6484,0,2.6437,2.6437,2.6436,2.6392,2.6392,2.6391,2.6391,2.6341,2.634,2.6339,0,0,0,0,0,0,0,0,0,0,0,0,0,2.6539,2.6539,2.6485,2.6484,2.6484,2.6437,2.6437,2.6436,2.6393,2.6392,2.6391,2.6391,2.6341,2.634,2.6339,0,0,0,0,0,0,0,0,0,0,0,0,0,2.6506,2.6538,2.6485,2.6457,2.6453,2.6438,2.6437,2.6436,2.6393,2.6392,2.6391,2.639,2.6342,2.634,2.6339,2.6347,0,0,2.6335,2.6335,0,0,0,0,0,0,0,0,2.6508,2.6504,2.6461,2.6458,2.6455,2.642,2.6438,2.6406,2.6393,2.6416,2.6391,2.639,2.6368,2.6364,2.6357,2.6345,2.6343,2.6335,2.6334,2.6334,2.6334,0,0,0,0,0,0,0,2.6511,2.6506,2.6466,2.6461,2.6457,2.6447,2.6441,2.6432,2.6397,2.6414,2.641,2.6405,2.6366,2.6358,2.6356,2.6342,2.6335,2.6334,2.6333,2.6333,2.6339,2.634,0,0,0,0,0,0,2.6517,2.6508,2.6468,2.6465,2.648,2.6446,2.644,2.6432,2.6397,2.6391,2.6406,2.6404,2.6361,2.6357,2.6354,2.6364,2.6334,2.6333,2.6332,2.6338,2.6339,2.634,0,0,0,0,0,0,2.6519,2.6514,2.647,2.6486,2.6479,2.6446,2.6438,2.6432,2.6424,2.6391,2.6385,2.6405,2.636,2.6355,2.635,2.6362,2.6332,2.6331,2.6337,2.6338,2.6339,2.6383,0,0,0,0,0,0,2.652,2.6515,2.6517,2.6486,2.6479,2.6467,2.6438,2.6431,2.6422,2.6418,2.6388,2.6382,2.6359,2.6352,2.6349,2.6359,2.633,2.6336,2.6337,2.6339,2.638,2.6386,2.639,0,0,0,0,0,2.6522,2.653,2.6517,2.6513,2.6481,2.6467,2.6463,2.6436,2.6423,2.6426,2.6405,2.6383,2.6361,2.6352,2.6348,2.6358,2.6335,2.6337,2.6339,2.6378,2.6384,2.639,0,0,0,0,0,0,2.6561,2.6525,2.6511,2.6508,2.6492,2.646,2.6462,2.6443,2.6429,2.6426,2.6394,2.6387,2.6387,2.6371,2.6363,2.6366,2.6345,2.6346,2.6376,2.6382,2.6387,2.6391,2.6329,0,0,0,0,0,2.657,2.6562,2.6531,2.6532,2.6524,2.6495,2.6488,2.6469,2.645,2.6443,2.6421,2.6404,2.6393,2.6386,2.6374,2.6378,2.6372,2.6383,2.6388,2.6392,2.6394,2.6398,2.6404,2.6347,2.6347,2.6347,0,0,2.6587,2.6566,2.6563,2.6539,2.6524,2.6518,2.6489,2.6482,2.6478,2.6441,2.6436,2.6421,2.6399,2.6399,2.6398,2.6386,2.6409,2.6395,2.6398,2.6398,2.6401,2.6406,2.6411,2.6348,2.6348,2.6347,0,0,2.6615,2.6598,2.6599,2.6585,2.6563,2.6544,2.6544,2.6516,2.6505,2.6499,2.6473,2.6467,2.6448,2.6435,2.6426,2.6454,2.6435,2.6451,2.6477,2.6481,2.6486,2.649,2.6503,2.6507,2.6453,2.6453,2.6453,0,2.6639,2.6628,2.6601,2.6597,2.6589,2.6558,2.6559,2.6547,2.6522,2.6517,2.6505,2.6483,2.6466,2.6465,2.6472,2.6465,2.6466,2.6454,2.6488,2.6491,2.6494,2.6506,2.6511,2.6455,2.6455,2.6455,2.6454,0,2.666,2.6654,2.6657,2.6636,2.6627,2.6626,2.66,2.6595,2.6578,2.6561,2.6558,2.6537,2.6522,2.652,2.6502,2.6517,2.6511,2.6493,2.6472,2.6503,2.6514,2.6518,2.6458,2.6458,2.6457,2.6456,0,0,2.671,2.6677,2.6678,2.667,2.6645,2.664,2.6638,2.6625,2.6623,2.6607,2.6607,2.6594,2.6579,2.6568,2.6549,2.6553,2.6581,2.6536,2.6535,2.6547,2.66,2.6615,2.662,2.6568,2.6569,2.6569,2.6603,0,2.6736,2.6732,2.6709,2.6712,2.6708,2.668,2.6679,2.6664,2.6649,2.6644,2.6626,2.6619,2.6598,2.6592,2.6595,2.6577,2.6592,2.6574,2.6569,2.6569,2.6577,2.6625,2.664,2.6673,2.6607,2.6607,2.6608,0,2.6764,2.6754,2.6757,2.6736,2.6733,2.6733,2.6721,2.6715,2.6699,2.6688,2.6679,2.6659,2.6658,2.6637,2.6636,2.6625,2.6622,2.6613,2.6614,2.6614,2.6591,2.6629,2.6682,2.6688,2.6613,2.6613,2.6613,0,2.6804,2.6789,2.6791,2.6784,2.6759,2.676,2.6749,2.6733,2.6728,2.6717,2.6714,2.6703,2.6697,2.669,2.6669,2.6655,2.6672,2.6648,2.6664,2.6665,2.667,2.667,2.6726,2.6665,2.6664,2.6664,2.6664,0,2.6835,2.6839,2.6809,2.6809,2.6814,2.6788,2.6794,2.6781,2.6767,2.6766,2.674,2.674,2.671,2.6707,2.669,2.6695,2.6691,2.6684,2.668,2.6687,2.6689,2.6685,2.6683,2.6666,2.6665,2.6665,2.6665,0,2.688,2.6859,2.6859,2.6836,2.6831,2.6836,2.6817,2.6817,2.6802,2.6801,2.68,2.6776,2.6771,2.6749,2.6738,2.6727,2.6738,2.6728,2.6744,2.6742,2.676,2.676,2.6817,2.6825,2.6757,2.6758,2.6758,0,2.6902,2.6905,2.6884,2.6882,2.6873,2.687,2.6865,2.6841,2.6838,2.6823,2.6826,2.682,2.6814,2.6808,2.679,2.6783,2.6774,2.6795,2.6773,2.6782,2.6778,2.6779,2.6781,2.68,2.6801,2.6801,2.6802,0,2.6945,2.6935,2.693,2.6923,2.6919,2.6911,2.6902,2.6902,2.6876,2.6873,2.6869,2.6865,2.6856,2.6852,2.6842,2.6832,2.6814,2.6809,2.6813,2.6822,2.6832,2.683,2.6759,2.6808,2.6808,2.6807,2.6807,2.6807,2.698,2.6983,2.697,2.6966,2.6957,2.695,2.6952,2.6938,2.6934,2.6926,2.6912,2.6911,2.6899,2.6885,2.6877,2.6877,2.6866,2.687,2.6872,2.6874,2.688,2.6831,2.6875,2.6874,2.6874,2.6874,2.6874,0,2.7023,2.7015,2.7012,2.7001,2.6999,2.6983,2.6974,2.6973,2.6973,2.6963,2.6959,2.6957,2.6953,2.6936,2.6931,2.6934,2.6926,2.6934,2.6935,2.6933,2.6888,2.6887,2.6941,2.6941,2.6941,2.6941,2.6941,2.6941,2.7046,2.7051,2.7041,2.7043,2.7034,2.7034,2.703,2.7025,2.7018,2.7017,2.7014,2.7004,2.6992,2.6987,2.6984,2.6979,2.698,2.6991,2.6984,2.6942,2.6936,2.693,2.6928,2.6991,2.6991,2.703,2.703,2.7031]}]]